This is the latest recevied weather packets stored in our database for station/object YO4ISC-13. If no packets are shown the sender has not sent any weather packets the latest 1 day(s).
| Time | Temp. | Humidity | Pressure | Rain* | Wind** | Luminosity | Snow |
|---|---|---|---|---|---|---|---|
| 1777979402 | 15.56° C | 66% | 1018 hPa | - | 3.13 m/s, 169° | - | - |
| 1777978801 | 15.56° C | 66% | 1018 hPa | - | 2.68 m/s, 147° | - | - |
| 1777978202 | 15.56° C | 66% | 1018 hPa | - | 3.13 m/s, 146° | - | - |
| 1777977602 | 15.56° C | 64% | 1018 hPa | - | 3.13 m/s, 145° | - | - |
| 1777977002 | 15.56° C | 61% | 1018 hPa | - | 4.92 m/s, 162° | - | - |
| 1777976402 | 16.11° C | 57% | 1018 hPa | - | 2.24 m/s, 127° | - | - |
| 1777975801 | 16.11° C | 57% | 1018 hPa | - | 3.58 m/s, 158° | - | - |
| 1777975202 | 16.11° C | 55% | 1018 hPa | - | 4.92 m/s, 126° | - | - |
| 1777974601 | 16.67° C | 51% | 1018 hPa | - | 5.36 m/s, 109° | - | - |
| 1777974002 | 16.67° C | 50% | 1018 hPa | - | 2.68 m/s, 107° | - | - |
| 1777973401 | 16.67° C | 47% | 1018 hPa | - | 4.02 m/s, 105° | - | - |
| 1777972802 | 16.67° C | 49% | 1018 hPa | - | 3.13 m/s, 102° | - | - |
| 1777972202 | 16.67° C | 47% | 1018 hPa | - | 4.02 m/s, 112° | - | - |
| 1777971601 | 16.67° C | 51% | 1018 hPa | - | 2.24 m/s, 116° | - | - |
| 1777971002 | 16.67° C | 49% | 1018 hPa | - | 4.47 m/s, 102° | - | - |
| 1777970401 | 17.22° C | 46% | 1018 hPa | - | 2.68 m/s, 112° | - | - |
| 1777969802 | 17.78° C | 40% | 1018 hPa | - | 2.24 m/s, 88° | - | - |
| 1777969201 | 17.22° C | 40% | 1018 hPa | - | 2.24 m/s, 82° | - | - |
| 1777968601 | 17.22° C | 41% | 1018 hPa | - | 2.24 m/s, 87° | - | - |
| 1777968002 | 17.22° C | 42% | 1018 hPa | - | 2.68 m/s, 118° | - | - |
| 1777967402 | 17.22° C | 42% | 1018 hPa | - | 2.24 m/s, 127° | - | - |
| 1777966801 | 17.22° C | 44% | 1018 hPa | - | 2.68 m/s, 103° | - | - |
| 1777966202 | 17.22° C | 44% | 1018 hPa | - | 1.79 m/s, 77° | - | - |
| 1777965602 | 17.22° C | 45% | 1018 hPa | - | 1.34 m/s, 67° | - | - |
| 1777965001 | 16.67° C | 43% | 1018 hPa | - | 2.68 m/s, 60° | - | - |
* Rain since midnight (hover to see other rain measurements)
** Current wind speed in m/s (hover to see current wind gust speed)